Zurück zum Katalog

STARLINK-33951

AktivKommunikationVLEO
NORAD 63803·PAYLOAD·🇺🇸 United States

Gestartet May 2, 2025 von Cape Canaveral Space Force Station

Loading…

Nächste Überflüge (nächste 24 Stunden)

TLE

AktuellSource: CelesTrak SupGP

Epoche: Sep 15, 2026, 03:30 UTC

1 63803C 25091AD  26258.14631944 -.00023452  00000+0 -84890-3 0  2589
2 63803  43.0035  62.3344 0001476 263.9723 319.5738 15.27609938    16

Verfolge STARLINK-33951 in Echtzeit mit AllMySat

Download on the App Store